TimeCST,TemperatureF,Dew PointF,Humidity,Sea Level PressureIn,VisibilityMPH,Wind Direction,Wind SpeedMPH,Gust SpeedMPH,PrecipitationIn,Events,Conditions,WindDirDegrees,DateUTC
12:53 AM,46.0,32.0,58,30.19,10.0,North,13.8,-,N/A,,Mostly Cloudy,350,2013-01-21 06:53:00
1:53 AM,44.1,23.0,43,30.22,10.0,North,12.7,-,N/A,,Overcast,10,2013-01-21 07:53:00
2:53 AM,42.1,21.0,43,30.26,10.0,North,5.8,-,N/A,,Mostly Cloudy,350,2013-01-21 08:53:00
3:53 AM,39.0,21.0,49,30.26,10.0,North,8.1,-,N/A,,Clear,350,2013-01-21 09:53:00
4:53 AM,37.9,21.0,51,30.29,10.0,NNW,5.8,-,N/A,,Scattered Clouds,330,2013-01-21 10:53:00
5:53 AM,36.0,19.9,52,30.32,10.0,North,4.6,-,N/A,,Partly Cloudy,360,2013-01-21 11:53:00
6:53 AM,35.1,18.0,50,30.33,10.0,NNE,11.5,-,N/A,,Clear,20,2013-01-21 12:53:00
7:53 AM,35.1,16.0,46,30.36,10.0,NE,5.8,-,N/A,,Clear,50,2013-01-21 13:53:00
8:53 AM,37.9,15.1,39,30.36,10.0,ENE,6.9,-,N/A,,Clear,70,2013-01-21 14:53:00
9:53 AM,41.0,15.1,35,30.38,10.0,East,8.1,-,N/A,,Clear,80,2013-01-21 15:53:00
10:53 AM,43.0,15.1,32,30.38,10.0,ENE,6.9,-,N/A,,Clear,70,2013-01-21 16:53:00
11:53 AM,45.0,15.1,30,30.36,10.0,ENE,8.1,-,N/A,,Clear,70,2013-01-21 17:53:00
12:53 PM,46.9,14.0,27,30.32,10.0,Variable,4.6,-,N/A,,Clear,0,2013-01-21 18:53:00
1:53 PM,50.0,14.0,24,30.30,10.0,Calm,Calm,-,N/A,,Clear,0,2013-01-21 19:53:00
2:53 PM,51.1,14.0,23,30.28,10.0,Calm,Calm,-,N/A,,Clear,0,2013-01-21 20:53:00
3:53 PM,52.0,15.1,23,30.28,10.0,Variable,3.5,-,N/A,,Clear,0,2013-01-21 21:53:00
4:53 PM,51.1,15.1,24,30.27,10.0,NNW,9.2,-,N/A,,Clear,340,2013-01-21 22:53:00
5:53 PM,45.0,16.0,31,30.27,10.0,North,9.2,-,N/A,,Clear,350,2013-01-21 23:53:00
6:53 PM,41.0,17.1,38,30.27,10.0,North,8.1,-,N/A,,Clear,10,2013-01-22 00:53:00
7:53 PM,39.0,16.0,39,30.29,10.0,NNE,4.6,-,N/A,,Clear,30,2013-01-22 01:53:00
8:53 PM,37.9,17.1,43,30.30,10.0,NE,3.5,-,N/A,,Clear,40,2013-01-22 02:53:00
9:53 PM,35.1,19.0,52,30.31,10.0,NE,4.6,-,N/A,,Clear,40,2013-01-22 03:53:00
10:53 PM,35.1,19.0,52,30.33,10.0,NE,5.8,-,N/A,,Clear,40,2013-01-22 04:53:00
11:53 PM,34.0,21.0,59,30.32,10.0,East,5.8,-,N/A,,Clear,80,2013-01-22 05:53:00